Location: Zagreb
(45.8000°N, 16.0000°E)
Time: 21:12:46
(UTC+01:00)

deb Explorer IX - Pass Details

Date: 05 October 2020
Orbit: 537 x 1106 km, 38.8° (Epoch: 30 October)

Event Time Altitude Azimuth Distance (km) Brightness Sun altitude
Rises 17:56:32 0° 257° (WSW) 3,328 ? 4.6°
Reaches altitude 10° 17:59:21 10° 250° (WSW) 2,294 ? 4.1°
Maximum altitude 18:04:13 37° 184° (S) 1,060 ? 3.3°
Drops below altitude 10° 18:08:25 10° 117° (ESE) 1,984 ? 2.5°
Sets 18:10:42 0° 109° (ESE) 2,822 ? 2.2°
